User: anonymous   Login
Location: Unspecified
(0.0000°N, 0.0000°E)
Time: 10:39:15
(UTC+00:00)
Language:

Fuji - Orbit

View from above orbital plane
View from above orbital plane
View from above satellite
View from above satellite

Ground track
Ground track

The orbit data is extracted from the following two-line orbital elements,

1 16909U 86061B   19082.05155213 -.00000090  00000-0  53596-4 0  9990
2 16909  50.0176 359.3270 0011057 277.9202 178.1036 12.44468745482980
Epoch (UTC): 23 March 2019 01:14:14
Eccentricity: 0.0011057
inclination: 50.0176°
perigee height: 1479 km
apogee height: 1496 km
right ascension of ascending node: 359.3270°
argument of perigee: 277.9202°
revolutions per day: 12.44468745
mean anomaly at epoch: 178.1036°
orbit number at epoch: 48298

The dashed part of the orbit path shows where the satellite is in the earth's shadow,  

DLR